Theta_e
299 299 300 300 300 300 300 300 299 299 300 300 300 300 299 300 299 302 301 298 298 299 304 305 304 311 317 319 322 324 325 323 323 322 318 311 311 312 309 310 306 306 305 302 302
299 299 299 299 300 300 300 300 300 301 301 301 301 301 300 300 300 299 298 299 300 301 308 310 312 314 315 317 318 321 321 318 311 308 306 306 304 303 303 304 305 303 302 302 301
299 299 299 299 300 300 300 300 300 301 301 301 302 301 300 301 301 298 298 300 301 303 306 309 310 311 313 313 312 313 316 314 306 303 302 303 303 303 303 304 303 301 301 301 302
298 299 299 300 300 300 301 301 301 301 301 302 302 302 301 302 303 298 298 299 300 302 303 304 306 309 308 309 309 309 306 306 303 300 302 302 302 303 304 304 301 301 301 302 303
298 298 299 299 300 300 300 301 301 301 302 302 303 301 302 300 298 298 299 300 301 301 302 303 305 306 305 305 305 305 303 301 301 301 301 301 303 302 303 302 301 301 302 302 303
299 298 299 299 300 300 300 301 301 301 302 302 302 302 303 299 298 298 299 300 300 301 301 302 302 303 303 303 304 304 302 301 301 301 302 301 302 303 303 302 301 302 302 302 302
298 299 299 299 299 300 300 301 301 301 301 302 302 302 301 298 299 299 300 300 300 300 300 301 302 303 303 301 301 302 304 303 302 301 302 301 305 302 302 302 302 302 302 302 302
298 299 299 299 299 300 300 301 301 301 301 302 301 302 299 299 299 300 300 300 300 300 300 301 302 301 301 300 302 303 304 305 303 301 302 302 307 303 303 302 301 302 302 302 301
298 298 299 299 299 300 301 301 301 301 301 301 301 303 299 299 300 300 300 300 300 300 301 303 304 304 302 304 304 305 304 303 304 301 301 301 302 305 304 303 301 302 302 302 301
298 298 299 299 300 300 301 301 301 301 301 301 301 304 299 298 299 299 299 300 301 303 304 304 305 303 301 303 305 302 302 302 303 303 301 300 300 302 304 303 301 302 302 302 301
298 298 298 299 299 300 301 301 304 305 300 298 298 299 298 298 299 299 300 301 303 302 302 303 301 300 300 300 300 300 301 302 303 302 298 300 301 302 304 303 302 302 302 302 301
298 298 298 299 299 299 300 300 298 299 301 297 297 298 297 299 300 299 300 302 303 302 303 303 300 299 300 301 301 301 301 301 301 301 299 299 300 301 302 303 303 302 301 302 301
297 297 298 298 298 299 299 298 298 298 303 297 296 297 297 298 297 297 299 300 301 301 301 301 299 299 300 301 300 303 301 299 298 299 300 299 300 304 303 303 302 302 302 302 301
297 297 298 298 299 298 298 297 298 298 306 303 299 298 298 297 299 296 297 299 301 301 300 299 297 299 300 301 300 301 299 299 299 298 300 301 299 305 302 300 301 303 303 302 301
297 297 297 298 297 298 297 297 298 303 310 300 299 296 298 299 297 299 297 301 300 300 301 300 299 299 301 300 299 301 298 298 298 298 299 301 298 302 302 302 301 303 303 302 301
297 298 299 298 297 297 297 297 301 309 308 300 298 299 300 299 298 299 299 298 299 299 299 297 296 299 298 298 298 299 299 300 298 298 301 302 300 300 302 302 303 303 303 302 301
298 298 297 297 298 297 297 300 308 309 299 305 301 299 299 300 300 299 300 302 302 307 308 298 298 297 296 298 298 299 302 308 306 305 311 299 299 299 303 303 302 302 302 301 300
300 299 297 297 297 297 296 306 304 308 304 296 297 298 302 298 298 299 300 302 298 300 304 307 307 298 296 297 296 299 298 303 304 306 304 298 299 301 303 303 303 302 301 301 301
300 299 298 297 297 297 300 306 307 307 302 298 297 301 304 298 298 299 300 302 300 299 307 305 304 295 296 296 296 298 301 297 299 297 299 300 301 302 303 301 301 301 301 300 300
300 300 301 298 298 296 300 306 303 299 298 300 304 303 305 300 298 299 301 300 298 297 295 298 304 296 295 296 296 297 297 300 299 301 300 305 304 304 302 302 302 300 300 301 301
301 301 302 299 298 296 301 302 299 296 297 299 301 300 304 299 301 302 303 300 299 296 297 296 299 300 295 295 298 295 296 296 296 298 302 303 302 303 303 302 301 299 300 301 300
301 300 300 298 298 297 301 299 294 295 295 297 296 299 300 300 298 300 302 302 298 296 296 297 298 300 300 295 294 295 299 298 299 299 297 299 299 301 302 301 300 299 300 300 300
302 300 297 298 302 300 298 294 294 296 296 296 297 297 297 299 297 300 301 295 298 297 296 294 297 298 300 295 293 293 296 297 297 297 297 299 300 301 299 298 299 301 301 300 299
302 299 297 296 298 301 300 298 296 295 296 297 297 296 295 296 297 297 298 295 296 297 296 296 298 299 302 301 296 293 294 295 293 295 298 299 300 301 301 300 301 300 300 299 299
301 300 300 297 296 297 300 300 299 296 294 296 296 296 296 294 297 295 296 295 295 297 296 295 290 294 294 295 294 293 293 295 295 297 296 300 299 300 300 299 299 299 300 299 298
303 299 297 299 299 298 299 299 298 298 294 295 296 297 297 296 298 297 296 296 295 295 296 294 292 290 289 294 295 294 295 295 296 296 296 296 296 297 298 298 298 300 299 298 297
301 301 301 299 298 299 301 300 299 298 296 298 295 297 296 297 298 295 296 296 297 295 296 293 291 289 292 293 293 292 293 295 295 295 296 296 297 298 298 298 300 300 299 298 297
Wind_Speed
15 16 17 20 23 22 22 17 12 11 13 18 16 2 7 21 29 25 32 23 19 13 15 15 11 12 10 1 2 1 2 4 5 6 5 18 9 12 13 11 16 15 18 22 27
14 14 14 15 18 18 18 17 17 19 20 16 21 5 5 7 14 35 27 19 14 15 16 14 12 9 5 3 4 3 2 5 8 11 6 13 13 14 8 12 13 23 24 27 28
12 11 12 11 11 13 13 12 13 17 19 17 22 16 6 5 8 21 24 21 16 15 15 14 9 11 8 10 9 8 5 6 10 9 9 12 13 11 11 6 13 18 21 22 23
10 10 10 9 10 11 13 12 10 15 15 16 10 17 16 10 3 16 21 22 21 13 12 7 4 4 6 5 3 5 9 10 5 8 5 8 10 8 6 6 12 13 14 16 20
9 10 10 9 9 11 11 9 8 15 14 13 16 3 10 11 9 16 18 24 19 12 12 13 12 10 6 5 9 8 5 9 5 9 3 12 11 4 4 7 10 11 11 14 16
9 9 10 10 10 11 11 10 10 13 11 9 13 8 7 8 13 12 16 20 22 19 18 12 11 14 13 7 9 5 8 5 5 10 3 9 8 10 2 9 10 10 10 12 14
6 8 9 10 11 11 11 10 9 10 7 9 7 3 18 10 12 13 9 15 17 20 21 15 11 6 6 6 5 2 1 4 5 7 4 14 5 8 1 6 9 10 9 11 13
6 7 8 9 10 11 11 11 9 10 7 7 4 7 8 11 10 9 11 11 11 15 15 11 16 16 6 9 3 1 2 3 3 7 4 8 1 6 1 5 10 12 9 11 14
7 6 8 10 11 11 12 11 8 9 5 8 5 5 4 7 14 11 12 12 8 9 15 13 13 11 2 1 2 4 2 5 4 4 2 5 7 8 8 5 10 11 12 13 14
9 9 8 9 11 12 12 10 6 8 4 3 4 4 6 6 13 17 9 11 11 9 8 7 4 5 6 4 2 1 3 4 6 2 3 9 18 18 18 9 9 10 10 11 13
9 10 9 10 10 11 12 7 5 2 17 9 5 4 5 7 8 17 11 11 9 10 4 8 8 6 8 7 5 4 4 8 5 6 6 6 13 13 14 11 11 7 10 12 14
8 8 9 9 10 11 11 6 8 3 4 7 7 6 8 8 7 16 8 5 9 4 2 4 5 5 2 4 4 2 7 6 8 3 7 9 20 18 15 13 10 8 11 12 14
9 9 9 8 7 6 9 9 6 5 1 4 6 5 6 7 5 13 10 5 5 6 7 6 4 3 1 2 7 1 3 5 6 11 11 9 8 2 6 15 8 11 14 11 13
10 10 10 8 4 6 6 7 6 5 4 3 3 4 5 3 3 11 8 4 5 3 4 6 2 0 0 3 4 2 5 6 9 7 4 3 5 4 7 8 8 15 10 10 12
8 9 9 6 3 2 3 5 7 3 3 2 3 3 6 4 2 6 10 5 4 3 1 2 3 1 2 3 1 3 5 6 4 6 7 4 1 7 7 6 9 12 4 7 11
9 8 7 5 3 3 4 4 3 5 5 1 3 2 1 3 2 3 3 6 4 2 5 4 2 3 6 3 5 7 6 5 3 3 1 3 1 6 5 5 2 4 5 8 14
9 7 5 5 3 2 3 1 4 3 1 1 1 2 1 2 1 4 2 2 2 3 1 3 3 3 2 4 3 4 3 2 4 2 4 6 3 11 7 4 3 3 6 15 18
9 7 6 4 2 1 1 4 2 2 4 0 3 1 1 3 1 1 2 2 1 1 2 0 4 1 2 3 2 3 3 2 4 3 4 5 6 6 4 2 10 10 11 15 17
10 8 7 5 3 2 2 2 6 5 5 7 1 0 2 1 0 1 3 1 3 2 4 2 1 3 5 3 3 1 2 1 2 2 2 5 7 9 2 4 4 6 5 18 21
8 8 9 6 4 3 3 5 4 2 4 2 5 3 3 2 1 1 4 3 5 2 1 2 0 2 3 1 1 2 1 1 1 3 5 6 6 10 6 7 4 3 14 20 22
7 4 6 5 7 4 2 5 4 6 4 5 3 3 3 4 4 3 3 2 4 4 2 2 3 0 3 6 5 2 2 1 1 2 3 4 6 4 2 2 3 6 18 21 24
7 2 5 11 3 3 3 3 4 3 5 2 1 2 7 7 5 3 6 3 10 12 6 4 3 3 4 4 4 3 2 6 4 4 3 1 9 7 0 2 7 15 19 23 22
8 7 8 18 4 3 3 3 5 4 4 4 5 5 3 6 1 5 2 3 11 7 5 6 2 2 3 3 4 3 5 4 3 2 6 5 8 1 5 6 11 16 24 27 25
11 3 5 15 7 4 4 5 5 9 3 4 2 4 3 4 4 2 3 1 8 5 4 7 1 5 6 4 4 3 4 6 6 4 4 17 19 24 21 19 18 26 30 26 23
17 9 12 6 9 11 8 7 5 6 6 9 3 7 7 5 5 5 5 3 3 5 4 4 5 2 5 5 5 7 9 12 18 21 9 20 14 26 14 16 27 33 23 21 23
18 9 9 4 9 20 12 9 12 5 10 6 6 11 9 8 9 8 8 6 6 9 6 4 2 2 5 8 6 7 17 18 25 24 23 29 30 36 43 42 29 20 17 21 24
32 20 10 13 8 8 9 11 19 13 15 14 20 6 14 17 10 3 2 5 12 10 10 6 4 3 5 3 6 8 15 21 10 10 25 18 29 16 18 20 12 19 20 24 22
Wind_Direction
67 69 60 62 63 73 75 76 61 34 15 12 10 161 60 53 41 60 39 13 9 35 70 52 94 117 90 98 68 314 266 247 30 10 30 14 0 350 338 318 337 8 4 339 324
67 67 63 60 63 59 61 62 59 42 31 22 20 33 155 41 44 37 26 22 45 53 84 90 95 106 96 83 16 349 231 60 31 35 6 343 352 357 350 332 3 352 337 336 345
60 59 58 51 43 39 32 30 33 28 30 31 31 44 87 45 50 15 17 28 60 66 87 90 69 101 73 64 360 18 43 120 42 28 2 2 360 340 354 16 11 344 341 345 349
47 46 44 35 34 28 21 29 35 25 16 18 13 49 59 47 66 10 20 29 47 83 66 49 81 65 54 67 19 111 47 31 39 18 18 356 319 324 351 10 338 342 341 347 353
37 33 30 30 21 14 13 17 18 4 6 20 26 63 57 54 38 27 28 34 53 65 99 81 70 74 87 69 43 61 91 70 48 31 355 347 325 328 323 351 345 339 349 357 359
21 20 16 11 5 359 2 359 355 358 14 18 35 61 80 71 34 27 37 39 49 56 68 92 95 93 79 50 40 57 70 62 33 22 14 352 303 304 77 349 345 344 346 350 353
16 13 6 3 357 355 355 348 350 360 10 16 35 45 62 59 38 25 19 28 40 49 58 81 72 106 120 112 94 124 278 196 83 355 40 335 267 215 345 340 333 338 334 339 344
355 358 355 357 351 355 351 351 355 358 18 26 38 61 81 46 36 28 37 32 41 44 52 72 72 67 69 116 149 221 343 319 91 8 33 358 168 145 275 329 329 331 328 329 332
337 337 352 351 350 351 355 352 356 10 39 46 53 105 73 34 25 20 27 26 38 37 45 59 67 63 22 195 104 45 329 16 326 98 319 42 282 220 330 296 309 316 323 322 322
334 335 343 344 351 353 354 347 348 15 19 50 44 81 46 8 16 18 14 24 33 37 26 34 71 75 21 358 170 47 345 340 301 39 8 288 268 266 274 245 266 298 311 320 324
335 336 337 339 353 354 360 357 335 354 38 60 33 60 5 7 27 8 20 42 23 40 28 18 64 61 29 22 17 28 318 280 315 24 349 285 288 275 271 229 246 282 311 319 322
337 334 337 343 352 0 13 45 47 40 59 44 51 37 28 28 17 8 41 72 47 52 323 50 80 58 42 337 347 301 291 333 301 77 336 284 287 272 243 237 223 260 288 305 317
340 341 339 342 353 3 35 55 49 29 67 19 31 31 16 42 40 3 30 42 28 45 36 77 106 124 4 24 12 311 309 6 294 314 266 289 271 216 195 204 202 252 270 289 314
337 341 343 342 345 5 30 28 24 17 75 326 43 2 6 53 31 18 24 50 45 75 41 73 129 175 335 95 25 315 47 332 308 328 298 39 284 240 175 196 218 239 243 294 304
331 339 340 342 320 16 20 8 0 55 8 54 27 355 34 58 353 356 31 51 47 78 315 157 162 177 242 81 100 228 13 284 307 291 315 199 282 262 123 201 233 214 236 277 308
311 318 322 324 337 2 359 2 45 43 261 25 338 335 241 29 32 336 52 62 101 70 43 73 32 335 8 295 233 291 284 204 215 229 328 124 48 277 187 200 153 189 233 305 306
296 298 311 325 323 340 347 17 36 147 81 271 190 355 303 34 101 19 20 64 51 52 14 156 127 99 347 305 169 302 318 318 349 5 236 116 323 250 283 205 188 269 289 287 299
305 299 299 300 287 322 1 47 122 197 221 233 153 130 21 347 87 307 192 173 89 298 113 85 316 100 349 49 343 6 26 125 260 300 310 142 234 255 177 319 265 257 276 290 314
308 303 293 280 267 203 111 79 216 203 153 155 118 160 299 223 244 244 213 166 112 161 148 132 223 97 39 351 344 20 64 60 307 138 349 241 273 286 303 199 175 209 318 318 317
298 309 276 255 221 181 78 235 223 216 132 166 176 188 204 210 237 228 177 182 141 94 81 192 28 1 113 236 63 336 51 113 326 357 290 284 277 248 240 248 177 17 321 317 323
259 283 256 210 182 150 201 245 241 208 194 183 215 139 216 185 192 214 223 297 127 133 109 132 111 233 44 201 175 156 167 60 83 162 227 301 254 219 282 351 297 292 295 311 329
222 226 218 173 127 156 196 207 316 191 189 169 267 276 189 170 187 234 217 173 165 158 159 204 134 219 202 80 47 352 226 173 143 234 242 284 267 266 237 205 252 273 297 323 323
202 208 192 178 181 210 233 220 209 199 214 178 204 225 27 171 205 185 185 75 173 178 165 193 225 356 303 11 13 220 205 231 63 72 213 159 261 128 149 235 255 297 325 321 317
180 168 178 201 215 194 170 225 203 193 214 200 175 95 123 211 215 206 207 150 191 182 136 163 221 195 205 186 122 192 221 212 154 185 202 226 275 269 281 297 298 317 314 306 312
197 216 184 181 218 200 186 163 166 191 209 194 209 209 165 177 189 206 193 118 178 184 179 140 203 208 280 261 206 204 219 198 210 219 211 258 261 271 270 288 299 302 298 301 313
200 179 187 189 162 184 190 208 181 164 152 218 219 190 186 184 183 185 164 164 191 175 170 171 247 80 281 258 243 250 249 234 230 237 246 256 270 267 279 281 282 284 301 300 315
210 210 191 183 165 165 198 194 205 170 212 203 199 153 198 220 164 153 108 174 163 161 178 156 143 113 262 336 312 283 236 228 208 217 223 235 241 266 276 277 285 304 301 296 311